TimeMST,TemperatureF,Dew PointF,Humidity,Sea Level PressureIn,VisibilityMPH,Wind Direction,Wind SpeedMPH,Gust SpeedMPH,PrecipitationIn,Events,Conditions,WindDirDegrees,DateUTC
12:53 AM,23.0,18.0,81,30.12,10.0,West,12.7,-,N/A,,Clear,280,2013-01-25 07:53:00
1:53 AM,21.9,17.1,82,30.14,10.0,West,11.5,-,N/A,,Clear,280,2013-01-25 08:53:00
2:53 AM,21.0,16.0,81,30.13,10.0,WNW,10.4,-,N/A,,Clear,290,2013-01-25 09:53:00
3:53 AM,17.1,12.9,84,30.14,10.0,WNW,9.2,-,N/A,,Clear,300,2013-01-25 10:53:00
4:53 AM,18.0,14.0,84,30.14,10.0,WNW,9.2,-,N/A,,Clear,290,2013-01-25 11:53:00
5:53 AM,17.1,12.9,84,30.16,10.0,NW,6.9,-,N/A,,Clear,320,2013-01-25 12:53:00
6:53 AM,12.9,10.0,88,30.16,10.0,West,6.9,-,N/A,,Clear,280,2013-01-25 13:53:00
7:53 AM,14.0,10.0,84,30.18,10.0,West,6.9,-,N/A,,Clear,280,2013-01-25 14:53:00
8:53 AM,21.0,15.1,78,30.17,10.0,WNW,5.8,-,N/A,,Clear,290,2013-01-25 15:53:00
9:53 AM,26.1,17.1,69,30.18,10.0,NNW,5.8,-,N/A,,Clear,340,2013-01-25 16:53:00
10:53 AM,30.9,19.0,61,30.18,10.0,Variable,3.5,-,N/A,,Clear,0,2013-01-25 17:53:00
11:53 AM,32.0,19.0,59,30.16,10.0,Calm,Calm,-,N/A,,Clear,0,2013-01-25 18:53:00
12:53 PM,32.0,19.9,61,30.13,10.0,East,5.8,-,N/A,,Clear,90,2013-01-25 19:53:00
1:53 PM,30.0,21.0,69,30.14,10.0,ESE,10.4,-,N/A,,Clear,110,2013-01-25 20:53:00
2:53 PM,30.9,21.0,67,30.14,10.0,SE,10.4,-,N/A,,Clear,130,2013-01-25 21:53:00
3:53 PM,26.1,19.9,78,30.15,10.0,SE,9.2,-,N/A,,Clear,130,2013-01-25 22:53:00
4:53 PM,23.0,18.0,81,30.16,10.0,ESE,8.1,-,N/A,,Clear,120,2013-01-25 23:53:00
5:53 PM,21.9,17.1,82,30.15,10.0,SE,6.9,-,N/A,,Clear,140,2013-01-26 00:53:00
6:53 PM,21.0,17.1,85,30.15,10.0,SSE,6.9,-,N/A,,Clear,150,2013-01-26 01:53:00
7:53 PM,19.9,17.1,89,30.14,10.0,SE,5.8,-,N/A,,Clear,140,2013-01-26 02:53:00
8:53 PM,19.0,16.0,88,30.12,10.0,SE,5.8,-,N/A,,Clear,140,2013-01-26 03:53:00
9:53 PM,21.9,18.0,85,30.09,10.0,SE,8.1,-,N/A,,Clear,140,2013-01-26 04:53:00
10:53 PM,23.0,19.0,85,30.07,10.0,SSE,6.9,-,N/A,,Clear,150,2013-01-26 05:53:00
11:53 PM,23.0,19.0,85,30.05,10.0,SSE,3.5,-,N/A,,Clear,150,2013-01-26 06:53:00